FDX1288 KBHM-KMEM

Flight info

Callsign FDX1288
Flight time 0h 43m
Altitude 30000
Route KELCC WASER VANZE3
Aircraft B752/M-SDE3FGHIM3RWXY/LB1

Departure

Time 2026-04-24 21:59
Airport Birmingham-Shuttlesworth International Airport (KBHM)

Arrival

Time 2026-04-24 22:42
Airport Memphis International Airport (KMEM)
Time Latitude Longitude Altitude Speed Heading
2026-04-24 21:40 33.55377 -86.76834 611 ft 0 kts 178°
2026-04-24 21:49 33.55377 -86.76835 612 ft 0 kts 178°
2026-04-24 21:49 33.55378 -86.76835 612 ft 1 kts 176°
2026-04-24 21:50 33.55391 -86.76829 612 ft 2 kts 207°
2026-04-24 21:50 33.55404 -86.76823 612 ft 2 kts 198°
2026-04-24 21:50 33.55418 -86.76817 612 ft 2 kts 201°
2026-04-24 21:50 33.55432 -86.76811 613 ft 2 kts 200°
2026-04-24 21:51 33.55442 -86.76807 613 ft 1 kts 201°
2026-04-24 21:51 33.55451 -86.76806 613 ft 1 kts 143°
2026-04-24 21:51 33.55456 -86.76815 613 ft 0 kts 95°
2026-04-24 21:51 33.55456 -86.76822 613 ft 1 kts 89°
2026-04-24 21:52 33.55456 -86.76824 613 ft 0 kts 90°
2026-04-24 21:52 33.55456 -86.76823 613 ft 0 kts 90°
2026-04-24 21:53 33.55483 -86.76813 614 ft 10 kts 356°
2026-04-24 21:53 33.55574 -86.76765 614 ft 19 kts 40°
2026-04-24 21:53 33.55674 -86.76608 616 ft 28 kts 54°
2026-04-24 21:54 33.55790 -86.76412 618 ft 26 kts 54°
2026-04-24 21:54 33.55894 -86.76235 621 ft 25 kts 54°
2026-04-24 21:54 33.55994 -86.76062 621 ft 25 kts 55°
2026-04-24 21:54 33.56090 -86.75890 621 ft 24 kts 56°
2026-04-24 21:55 33.56192 -86.75715 619 ft 26 kts 54°
2026-04-24 21:55 33.56318 -86.75500 623 ft 36 kts 55°
2026-04-24 21:55 33.56463 -86.75249 626 ft 29 kts 55°
2026-04-24 21:55 33.56567 -86.75069 631 ft 20 kts 56°
2026-04-24 21:56 33.56600 -86.74914 632 ft 18 kts 89°
2026-04-24 21:56 33.56646 -86.74791 635 ft 15 kts 59°
2026-04-24 21:56 33.56711 -86.74676 637 ft 20 kts 55°
2026-04-24 21:56 33.56809 -86.74502 638 ft 29 kts 53°
2026-04-24 21:57 33.56931 -86.74298 645 ft 29 kts 54°
2026-04-24 21:57 33.57040 -86.74111 650 ft 22 kts 56°
2026-04-24 21:57 33.57122 -86.73965 656 ft 19 kts 56°
2026-04-24 21:57 33.57173 -86.73877 662 ft 9 kts 54°
2026-04-24 21:58 33.57210 -86.73851 664 ft 5 kts
2026-04-24 21:58 33.57260 -86.73869 664 ft 11 kts 329°
2026-04-24 21:58 33.57307 -86.73956 662 ft 14 kts 263°
2026-04-24 21:58 33.57227 -86.74129 653 ft 49 kts 235°
2026-04-24 21:59 33.56881 -86.74729 641 ft 124 kts 234°
2026-04-24 21:59 33.56260 -86.75803 779 ft 178 kts 236°
2026-04-24 21:59 33.55535 -86.77071 1563 ft 198 kts 236°
2026-04-24 21:59 33.54773 -86.78386 2690 ft 195 kts 236°
2026-04-24 22:00 33.53956 -86.79838 3013 ft 220 kts 236°
2026-04-24 22:00 33.53074 -86.81422 3487 ft 238 kts 236°
2026-04-24 22:00 33.52123 -86.83134 3941 ft 258 kts 236°
2026-04-24 22:00 33.51094 -86.84991 3989 ft 271 kts 237°
2026-04-24 22:01 33.50069 -86.86842 3974 ft 263 kts 237°
2026-04-24 22:01 33.49052 -86.88663 3982 ft 259 kts 237°
2026-04-24 22:01 33.48399 -86.90666 4085 ft 271 kts 265°
2026-04-24 22:01 33.48735 -86.92832 5078 ft 269 kts 295°
2026-04-24 22:02 33.49919 -86.94590 5854 ft 280 kts 323°
2026-04-24 22:02 33.51654 -86.95641 6762 ft 283 kts 336°
2026-04-24 22:02 33.53397 -86.96699 7681 ft 282 kts 323°
2026-04-24 22:02 33.54907 -86.98131 8583 ft 281 kts 315°
2026-04-24 22:03 33.56285 -86.99760 9513 ft 280 kts 310°
2026-04-24 22:03 33.57590 -87.01492 10345 ft 284 kts 308°
2026-04-24 22:03 33.58897 -87.03368 10777 ft 303 kts 307°
2026-04-24 22:03 33.60243 -87.05397 11171 ft 322 kts 306°
2026-04-24 22:04 33.61653 -87.07576 11569 ft 341 kts 306°
2026-04-24 22:04 33.63091 -87.09828 12360 ft 345 kts 306°
2026-04-24 22:04 33.64556 -87.12141 13099 ft 350 kts 306°
2026-04-24 22:04 33.66031 -87.14481 13937 ft 352 kts 306°
2026-04-24 22:05 33.67484 -87.16792 14765 ft 353 kts 306°
2026-04-24 22:05 33.68972 -87.19163 15574 ft 354 kts 306°
2026-04-24 22:05 33.70453 -87.21530 16312 ft 357 kts 306°
2026-04-24 22:05 33.71933 -87.23897 17018 ft 359 kts 306°
2026-04-24 22:06 33.73420 -87.26274 17790 ft 359 kts 305°
2026-04-24 22:06 33.74933 -87.28701 18364 ft 365 kts 306°
2026-04-24 22:06 33.76452 -87.31136 18993 ft 368 kts 306°
2026-04-24 22:06 33.77997 -87.33615 19579 ft 373 kts 306°
2026-04-24 22:07 33.79545 -87.36100 20192 ft 376 kts 306°
2026-04-24 22:07 33.81127 -87.38641 20762 ft 380 kts 306°
2026-04-24 22:07 33.82705 -87.41179 21259 ft 386 kts 306°
2026-04-24 22:07 33.84314 -87.43766 21909 ft 388 kts 306°
2026-04-24 22:08 33.85934 -87.46373 22433 ft 393 kts 306°
2026-04-24 22:08 33.87574 -87.49014 22944 ft 398 kts 306°
2026-04-24 22:08 33.89242 -87.51704 23451 ft 403 kts 307°
2026-04-24 22:08 33.90922 -87.54414 24077 ft 404 kts 307°
2026-04-24 22:09 33.92601 -87.57124 24482 ft 411 kts 307°
2026-04-24 22:09 33.94315 -87.59892 25072 ft 412 kts 307°
2026-04-24 22:09 33.96026 -87.62660 25396 ft 419 kts 307°
2026-04-24 22:09 33.97772 -87.65485 25962 ft 420 kts 306°
2026-04-24 22:10 33.99524 -87.68322 26401 ft 423 kts 306°
2026-04-24 22:10 34.01286 -87.71178 26770 ft 428 kts 306°
2026-04-24 22:10 34.03062 -87.74058 27403 ft 426 kts 306°
2026-04-24 22:10 34.04824 -87.76919 27921 ft 427 kts 306°
2026-04-24 22:11 34.06576 -87.79766 28429 ft 427 kts 307°
2026-04-24 22:11 34.08352 -87.82655 28968 ft 427 kts 307°
2026-04-24 22:11 34.10102 -87.85501 29433 ft 428 kts 307°
2026-04-24 22:11 34.11776 -87.88227 29875 ft 427 kts 307°
2026-04-24 22:12 34.13531 -87.91088 29882 ft 426 kts 306°
2026-04-24 22:12 34.17022 -87.96784 29884 ft 423 kts 306°
2026-04-24 22:13 34.20508 -88.02531 29878 ft 423 kts 303°
2026-04-24 22:13 34.23595 -88.08620 29875 ft 424 kts 301°
2026-04-24 22:14 34.26631 -88.14690 29875 ft 421 kts 301°
2026-04-24 22:14 34.29648 -88.20748 29869 ft 425 kts 300°
2026-04-24 22:15 34.32688 -88.26868 29858 ft 424 kts 300°
2026-04-24 22:15 34.34204 -88.29926 29700 ft 425 kts 300°
2026-04-24 22:15 34.35729 -88.33003 29193 ft 429 kts 300°
2026-04-24 22:15 34.37262 -88.36101 28658 ft 426 kts 300°
2026-04-24 22:16 34.38763 -88.39133 28139 ft 422 kts 300°
2026-04-24 22:16 34.40263 -88.42172 27624 ft 418 kts 300°
2026-04-24 22:16 34.41747 -88.45175 27125 ft 413 kts 300°
2026-04-24 22:16 34.43190 -88.48103 26640 ft 408 kts 299°
2026-04-24 22:17 34.44645 -88.51051 26159 ft 403 kts 299°
2026-04-24 22:17 34.46064 -88.53938 25691 ft 400 kts 300°
2026-04-24 22:17 34.47487 -88.56831 25226 ft 399 kts 299°
2026-04-24 22:17 34.48903 -88.59711 24775 ft 397 kts 299°
2026-04-24 22:18 34.50294 -88.62542 24332 ft 391 kts 299°
2026-04-24 22:18 34.51671 -88.65347 23885 ft 387 kts 298°
2026-04-24 22:18 34.53044 -88.68147 23452 ft 384 kts 298°
2026-04-24 22:18 34.54402 -88.70920 23025 ft 381 kts 298°
2026-04-24 22:19 34.55738 -88.73650 22621 ft 379 kts 298°
2026-04-24 22:19 34.57086 -88.76406 22205 ft 377 kts 298°
2026-04-24 22:19 34.58413 -88.79118 21780 ft 375 kts 298°
2026-04-24 22:19 34.59740 -88.81836 21359 ft 374 kts 298°
2026-04-24 22:20 34.61046 -88.84512 20956 ft 369 kts 298°
2026-04-24 22:20 34.62363 -88.87212 20501 ft 366 kts 298°
2026-04-24 22:20 34.63531 -88.89913 20094 ft 361 kts 289°
2026-04-24 22:20 34.64244 -88.92812 19726 ft 357 kts 284°
2026-04-24 22:21 34.64896 -88.95704 19347 ft 355 kts 284°
2026-04-24 22:21 34.65538 -88.98572 18967 ft 355 kts 284°
2026-04-24 22:21 34.66175 -89.01447 18597 ft 354 kts 284°
2026-04-24 22:21 34.66813 -89.04346 18275 ft 350 kts 284°
2026-04-24 22:22 34.67435 -89.07183 17958 ft 349 kts 284°
2026-04-24 22:22 34.68062 -89.09982 17670 ft 343 kts 285°
2026-04-24 22:22 34.68714 -89.12775 17242 ft 340 kts 285°
2026-04-24 22:22 34.69348 -89.15503 16844 ft 334 kts 285°
2026-04-24 22:23 34.69966 -89.18168 16426 ft 330 kts 285°
2026-04-24 22:23 34.70589 -89.20862 16033 ft 328 kts 285°
2026-04-24 22:23 34.71202 -89.23517 15646 ft 328 kts 285°
2026-04-24 22:23 34.71815 -89.26176 15281 ft 327 kts 285°
2026-04-24 22:24 34.72408 -89.28821 14904 ft 324 kts 284°
2026-04-24 22:24 34.72990 -89.31438 14540 ft 320 kts 284°
2026-04-24 22:24 34.73573 -89.34053 14183 ft 318 kts 284°
2026-04-24 22:24 34.74144 -89.36625 13813 ft 316 kts 284°
2026-04-24 22:25 34.74710 -89.39179 13461 ft 315 kts 284°
2026-04-24 22:25 34.75278 -89.41734 13098 ft 313 kts 284°
2026-04-24 22:25 34.75842 -89.44277 12733 ft 313 kts 284°
2026-04-24 22:25 34.76404 -89.46826 12390 ft 314 kts 284°
2026-04-24 22:26 34.77035 -89.49361 12023 ft 314 kts 292°
2026-04-24 22:26 34.78102 -89.51685 11703 ft 313 kts 300°
2026-04-24 22:26 34.79222 -89.53917 11409 ft 310 kts 298°
2026-04-24 22:26 34.80353 -89.56177 11132 ft 310 kts 299°
2026-04-24 22:27 34.81482 -89.58425 10832 ft 313 kts 300°
2026-04-24 22:27 34.82604 -89.60652 10478 ft 301 kts 300°
2026-04-24 22:27 34.83644 -89.62707 10384 ft 269 kts 299°
2026-04-24 22:27 34.84594 -89.64590 10437 ft 262 kts 298°
2026-04-24 22:28 34.85581 -89.66561 10433 ft 276 kts 298°
2026-04-24 22:28 34.86589 -89.68562 10323 ft 281 kts 298°
2026-04-24 22:28 34.87595 -89.70557 10274 ft 271 kts 298°
2026-04-24 22:28 34.88581 -89.72516 9915 ft 271 kts 298°
2026-04-24 22:29 34.90532 -89.76396 9243 ft 266 kts 299°
2026-04-24 22:29 34.91486 -89.78294 9001 ft 261 kts 299°
2026-04-24 22:29 34.92430 -89.80173 8706 ft 259 kts 299°
2026-04-24 22:30 34.93370 -89.82046 8474 ft 257 kts 299°
2026-04-24 22:30 34.94322 -89.83885 8218 ft 257 kts 306°
2026-04-24 22:30 34.95694 -89.85227 8221 ft 249 kts 335°
2026-04-24 22:30 34.97380 -89.85641 8012 ft 251 kts 351°
2026-04-24 22:31 34.99119 -89.85773 7827 ft 245 kts 352°
2026-04-24 22:31 35.00772 -89.85870 7785 ft 236 kts 354°
2026-04-24 22:31 35.02450 -89.85942 7466 ft 243 kts 354°
2026-04-24 22:31 35.04129 -89.85995 7214 ft 241 kts 355°
2026-04-24 22:32 35.05812 -89.86039 6992 ft 238 kts 354°
2026-04-24 22:32 35.07488 -89.86082 6550 ft 246 kts 355°
2026-04-24 22:32 35.09208 -89.86121 6275 ft 245 kts 355°
2026-04-24 22:32 35.10909 -89.86159 6001 ft 244 kts 355°
2026-04-24 22:33 35.12610 -89.86196 5728 ft 243 kts 356°
2026-04-24 22:33 35.14300 -89.86233 5458 ft 243 kts 356°
2026-04-24 22:33 35.16000 -89.86269 5190 ft 242 kts 356°
2026-04-24 22:33 35.17670 -89.86304 4926 ft 242 kts 356°
2026-04-24 22:34 35.19345 -89.86340 4667 ft 241 kts 356°
2026-04-24 22:34 35.21047 -89.86375 4404 ft 240 kts 356°
2026-04-24 22:34 35.22706 -89.86410 4164 ft 239 kts 356°
2026-04-24 22:34 35.24378 -89.86446 3866 ft 241 kts 357°
2026-04-24 22:35 35.26049 -89.86491 3608 ft 240 kts 353°
2026-04-24 22:35 35.27607 -89.87096 3323 ft 235 kts 321°
2026-04-24 22:35 35.28600 -89.88574 3167 ft 218 kts 284°
2026-04-24 22:35 35.28837 -89.90342 3208 ft 213 kts 269°
2026-04-24 22:36 35.28907 -89.92203 3224 ft 220 kts 269°
2026-04-24 22:36 35.28890 -89.94050 3221 ft 217 kts 256°
2026-04-24 22:36 35.28304 -89.95693 3250 ft 210 kts 233°
2026-04-24 22:36 35.27414 -89.97136 3261 ft 212 kts 228°
2026-04-24 22:37 35.26211 -89.98061 3291 ft 208 kts 187°
2026-04-24 22:37 35.24725 -89.97976 3349 ft 215 kts 175°
2026-04-24 22:37 35.23229 -89.97825 3353 ft 213 kts 178°
2026-04-24 22:37 35.21767 -89.97735 3352 ft 209 kts 179°
2026-04-24 22:38 35.20311 -89.97665 3298 ft 212 kts 179°
2026-04-24 22:38 35.18823 -89.97611 3067 ft 211 kts 179°
2026-04-24 22:38 35.17370 -89.97567 2771 ft 201 kts 180°
2026-04-24 22:38 35.16050 -89.97533 2537 ft 181 kts 180°
2026-04-24 22:39 35.14843 -89.97504 2274 ft 165 kts 180°
2026-04-24 22:39 35.13754 -89.97480 2070 ft 147 kts 180°
2026-04-24 22:39 35.12784 -89.97459 1889 ft 128 kts 180°
2026-04-24 22:39 35.11946 -89.97442 1686 ft 113 kts 179°
2026-04-24 22:40 35.11183 -89.97426 1531 ft 109 kts 179°
2026-04-24 22:40 35.10376 -89.97410 1430 ft 119 kts 179°
2026-04-24 22:40 35.09542 -89.97392 1268 ft 119 kts 179°
2026-04-24 22:40 35.08700 -89.97375 1102 ft 119 kts 179°
2026-04-24 22:41 35.07868 -89.97357 951 ft 120 kts 179°
2026-04-24 22:41 35.07019 -89.97355 774 ft 123 kts 179°
2026-04-24 22:41 35.06173 -89.97334 613 ft 122 kts 178°
2026-04-24 22:41 35.05303 -89.97308 474 ft 125 kts 178°
2026-04-24 22:42 35.04423 -89.97292 348 ft 121 kts 179°
2026-04-24 22:42 35.03793 -89.97273 347 ft 62 kts 178°
2026-04-24 22:42 35.03408 -89.97275 346 ft 44 kts 187°
2026-04-24 22:42 35.03251 -89.97332 346 ft 8 kts 207°